Location: Unspecified
(43.4354°N, 0.0000°E)
Time: 03:57:05
(UTC+00:00)

S-56A Canister/Altair - Pass Details

Date: 30 June 2019
Orbit: 632 x 2500 km, 38.9° (Epoch: 17 July)

Event Time Altitude Azimuth Distance (km) Brightness Sun altitude
Rises 17:22:56 0° 277° (W) 5,144 13.2 22.9°
Reaches altitude 10° 17:26:55 10° 273° (W) 3,845 13.1 22.2°
Maximum altitude 17:35:48 48° 203° (SSW) 1,491 9.4 20.6°
Drops below altitude 10° 17:41:45 10° 130° (SE) 2,597 9.8 19.5°
Sets 17:43:58 0° 124° (SE) 3,367 10.3 19.1°
